Total_Precipitation_Accumulation
2.93 2.89 2.69 2.46 2.10 1.92 2.15 2.24 1.96 2.01 2.11 2.16 2.50 2.80 2.96 3.10 4.15 5.61 6.26 3.16 5.20 5.86 2.08 0.91 0.89 0.83 0.65 0.85 1.54 1.48 2.12 2.04 2.53 2.54 2.20 2.03 1.78 1.29 1.00 0.65 0.59 1.08 2.04 2.23 2.17 2.55 1.13 0.33 0.48 1.02 1.37 1.24 1.18 1.27
3.22 2.85 2.48 2.16 1.90 1.95 2.13 2.34 2.05 2.01 1.96 2.05 2.17 2.45 2.88 3.22 3.92 5.03 5.87 3.49 4.22 6.64 3.76 1.04 1.03 0.68 0.46 0.56 1.04 1.47 1.95 1.89 2.16 2.63 2.00 1.76 1.53 1.34 1.20 1.27 0.64 0.85 1.09 1.57 1.71 1.41 0.74 0.40 0.52 0.98 1.01 1.07 1.06 1.10
3.30 3.04 2.79 2.22 1.98 2.02 2.15 2.25 2.04 1.90 1.76 1.84 2.12 2.25 2.70 3.25 4.00 5.26 4.86 3.78 6.28 7.83 4.03 1.56 1.07 0.68 0.64 0.51 0.72 1.90 1.38 1.17 1.46 1.36 2.27 1.95 1.56 0.89 1.03 0.86 0.88 1.06 0.64 1.02 1.20 1.12 0.58 0.44 0.40 0.48 0.56 0.74 0.83 0.77
3.13 2.96 2.60 2.25 2.03 2.10 1.96 1.95 1.85 1.77 1.73 1.79 2.01 2.37 2.75 3.54 4.05 5.15 4.58 3.67 4.97 5.26 4.56 2.27 0.88 0.69 0.70 0.77 0.76 1.02 0.97 0.94 1.49 2.06 2.92 2.53 1.94 1.20 1.32 0.92 0.89 1.19 0.93 1.09 1.32 1.65 0.83 0.71 0.84 0.83 0.64 0.62 0.52 0.48
2.42 2.36 2.28 2.18 1.95 1.98 1.89 1.95 1.90 1.79 1.88 1.86 2.04 2.46 3.28 3.85 4.76 5.81 4.05 3.42 3.52 4.12 4.17 2.47 1.12 0.82 0.69 0.82 0.75 0.92 1.01 1.29 2.06 3.04 3.07 1.72 1.02 1.59 1.74 1.06 0.84 0.80 1.07 1.28 1.50 1.47 1.44 1.41 1.14 0.84 0.77 0.65 0.46 0.28
1.89 1.90 2.09 2.14 1.85 1.91 1.84 1.91 2.06 2.06 1.94 2.05 2.39 2.66 3.47 4.76 6.90 8.71 10.31 6.11 3.45 3.34 4.95 3.45 1.87 1.14 0.79 0.85 1.09 1.38 1.84 2.19 2.52 3.00 2.05 1.17 0.67 1.89 2.61 1.24 0.80 0.85 1.16 1.12 1.12 1.06 0.89 0.85 0.72 0.59 0.55 0.52 0.56 0.54
1.75 1.78 2.16 2.03 1.82 1.71 1.84 2.05 2.14 2.23 2.32 2.49 2.79 3.01 4.29 6.16 6.66 6.01 5.00 3.59 2.35 3.21 5.09 3.71 2.49 1.76 1.31 1.22 1.82 1.84 2.13 3.13 3.49 3.54 2.28 0.98 0.79 2.37 2.82 1.23 0.81 0.86 0.95 0.80 0.69 0.69 0.68 0.50 0.38 0.33 0.33 0.41 0.52 0.54
1.82 1.73 1.72 1.76 1.70 1.70 1.82 1.95 2.07 2.37 2.66 3.07 3.31 4.47 5.87 6.86 6.25 4.08 1.49 1.34 1.78 4.02 4.11 3.51 3.07 3.12 1.79 2.00 2.50 2.11 2.37 2.96 3.42 2.98 1.96 1.15 1.40 2.24 2.39 0.82 0.47 0.41 0.45 0.33 0.27 0.24 0.32 0.22 0.19 0.15 0.10 0.11 0.23 0.50
1.28 1.21 1.31 1.39 1.52 1.64 1.72 1.86 2.25 2.51 3.25 4.49 5.60 7.58 10.62 9.53 7.22 3.46 1.65 1.93 2.47 3.85 3.71 1.85 2.07 3.59 2.59 2.14 2.61 2.75 2.60 3.19 2.33 2.23 1.52 1.67 1.85 1.97 1.15 0.46 0.35 0.24 0.27 0.22 0.11 0.09 0.08 0.07 0.14 0.29 0.31 0.17 0.20 0.50
1.21 1.07 1.15 1.33 1.49 1.59 1.80 2.15 2.57 3.48 4.56 5.68 8.45 10.07 11.74 6.65 3.19 3.70 6.53 7.02 6.32 4.55 2.82 1.67 1.22 2.30 2.73 2.69 2.63 3.20 2.75 2.20 2.06 1.32 1.20 1.75 1.11 0.49 0.32 0.24 0.19 0.16 0.18 0.21 0.24 0.17 0.13 0.13 0.15 0.22 0.39 0.46 0.53 0.53
1.61 1.60 1.63 1.85 2.02 2.20 2.53 2.65 3.25 4.30 5.78 8.11 8.36 7.32 5.97 4.37 4.45 5.78 6.94 5.29 3.92 2.85 1.34 0.97 1.24 1.90 2.13 2.70 2.73 2.41 3.01 2.33 1.79 1.30 1.39 1.42 0.93 0.82 0.31 0.17 0.12 0.13 0.17 0.26 0.28 0.51 0.35 0.30 0.24 0.36 0.44 0.52 0.59 0.60
1.73 2.05 2.19 2.28 2.34 2.45 2.58 2.84 3.47 4.98 5.23 4.22 3.90 4.71 5.95 5.46 4.62 4.41 3.59 2.42 1.39 1.13 0.63 0.61 0.91 1.08 1.86 2.21 2.69 2.02 2.12 2.07 2.38 1.86 2.09 1.34 1.53 0.68 0.20 0.31 0.32 0.21 0.22 0.25 0.31 0.51 0.40 0.45 0.40 0.43 0.41 0.38 0.54 0.71
1.62 1.83 2.12 2.35 2.28 2.19 2.52 3.12 3.63 3.44 2.81 3.41 3.66 3.71 3.72 3.72 3.05 2.40 1.87 1.32 1.02 0.53 0.49 0.55 1.07 1.28 1.56 2.03 2.57 2.13 2.33 2.04 1.76 2.16 1.38 1.13 0.93 0.68 0.53 0.68 0.67 0.64 0.62 0.72 0.69 0.60 0.58 0.48 0.43 0.42 0.49 0.75 0.90 1.09
1.40 1.93 2.04 2.10 2.25 2.49 3.03 3.49 3.86 3.27 3.19 3.62 3.02 2.66 2.04 1.95 1.26 1.08 1.16 1.08 0.82 0.58 0.54 0.64 1.33 1.83 1.66 2.04 2.39 2.27 2.03 1.61 1.69 1.31 1.26 1.21 0.85 0.90 0.83 0.75 0.64 0.62 0.57 0.58 0.68 0.74 0.82 0.82 0.95 1.06 1.09 1.36 1.38 1.33
1.23 1.58 1.88 2.39 2.55 2.56 2.59 3.13 3.19 2.29 2.53 2.22 1.49 1.26 1.07 1.21 0.91 0.87 0.85 0.72 0.82 0.91 1.02 1.30 1.81 1.98 1.82 2.02 1.59 1.51 1.46 1.19 0.90 1.62 1.67 1.37 1.01 0.94 0.78 0.72 0.68 0.70 0.72 0.74 0.84 0.88 1.10 1.19 1.07 1.20 1.25 1.25 1.27 1.26
1.22 2.08 2.30 2.17 1.80 1.81 2.72 3.67 3.04 1.87 1.58 1.27 1.28 1.36 1.08 1.15 1.14 0.97 0.81 0.83 1.04 1.43 1.64 1.89 2.20 2.35 2.22 1.45 1.09 0.97 0.81 0.99 1.61 1.28 1.08 1.07 0.92 0.97 0.99 0.96 0.96 0.94 0.83 0.83 0.88 0.86 0.85 0.91 0.99 1.15 1.01 0.93 1.19 1.33
2.05 3.35 2.71 2.28 2.47 3.40 3.79 3.30 2.57 1.91 1.27 1.10 1.53 1.56 1.36 1.42 1.72 1.34 1.09 1.00 1.05 1.17 1.46 1.70 1.75 1.54 1.49 1.20 0.85 0.79 1.14 1.28 1.15 1.01 0.94 0.94 0.96 1.03 1.10 1.05 1.01 0.80 0.70 0.70 0.69 0.69 0.69 0.75 0.68 0.59 0.66 0.91 0.90 1.01
2.00 2.32 2.60 2.83 2.85 2.74 2.41 1.66 1.70 1.16 1.09 1.29 1.60 1.56 0.96 1.12 1.22 1.11 1.09 0.85 0.80 0.89 1.10 1.38 1.29 1.11 1.38 1.25 1.17 1.37 1.39 1.25 1.20 1.06 1.00 1.03 0.98 0.92 0.85 0.78 0.83 0.76 0.65 0.58 0.49 0.46 0.44 0.41 0.32 0.38 0.40 0.48 0.49 0.61
1.67 1.75 1.86 1.71 1.16 1.48 1.87 1.40 0.90 1.13 1.78 1.45 1.26 0.85 0.65 0.81 0.83 0.76 0.70 0.48 0.36 0.67 1.25 1.34 1.24 1.19 1.15 1.20 1.26 1.22 1.14 1.03 1.03 0.91 0.82 0.84 0.82 0.76 0.70 0.63 0.69 0.77 0.62 0.50 0.34 0.26 0.24 0.19 0.19 0.17 0.19 0.19 0.27 0.34
1.61 1.49 1.36 1.14 0.87 1.09 0.93 0.90 0.46 0.97 1.39 1.27 0.78 0.47 0.47 0.75 0.62 0.57 0.70 0.75 0.77 0.96 1.39 1.49 1.52 1.38 1.33 1.25 1.03 1.02 0.88 0.76 0.63 0.53 0.66 0.72 0.67 0.51 0.57 0.53 0.50 0.50 0.49 0.39 0.27 0.21 0.19 0.19 0.20 0.17 0.17 0.17 0.22 0.27
2.59 2.25 1.70 1.12 1.05 1.10 1.00 0.76 0.47 0.49 0.94 1.02 0.84 0.70 0.84 0.79 0.98 1.14 1.03 1.02 1.63 1.33 1.24 1.15 1.16 1.17 0.81 0.78 0.68 0.57 0.60 0.52 0.49 0.36 0.43 0.57 0.59 0.43 0.44 0.47 0.40 0.35 0.32 0.40 0.37 0.33 0.28 0.33 0.29 0.23 0.21 0.20 0.22 0.20
1.99 1.38 1.44 1.10 1.18 0.90 0.76 0.43 0.57 0.61 0.80 0.93 0.86 0.90 1.18 1.29 1.33 1.29 1.11 1.29 1.41 1.21 1.05 0.78 0.65 0.61 0.46 0.41 0.40 0.32 0.36 0.31 0.35 0.43 0.51 0.46 0.57 0.63 0.75 0.78 0.63 0.58 0.53 0.56 0.61 0.55 0.45 0.33 0.29 0.24 0.19 0.24 0.23 0.22
0.90 0.92 1.14 0.96 1.18 1.05 0.88 0.69 0.76 0.61 0.85 0.87 0.71 0.91 0.99 1.04 1.27 0.95 1.33 1.33 1.49 1.33 0.92 0.54 0.43 0.32 0.38 0.42 0.33 0.28 0.20 0.20 0.28 0.36 0.39 0.41 0.47 0.52 0.60 0.73 0.76 0.69 0.52 0.42 0.41 0.42 0.41 0.33 0.32 0.44 0.51 0.49 0.36 0.35
0.94 1.24 1.16 0.83 0.73 0.79 0.62 0.54 0.41 0.41 0.49 0.56 0.75 0.92 0.92 0.96 1.08 1.19 1.22 1.25 1.70 1.18 0.71 0.62 0.51 0.52 0.53 0.48 0.49 0.49 0.50 0.41 0.41 0.50 0.64 0.69 0.59 0.52 0.40 0.33 0.26 0.24 0.24 0.20 0.17 0.21 0.20 0.22 0.29 0.41 0.43 0.57 0.75 0.64
1.45 1.40 1.15 0.82 0.38 0.38 0.28 0.34 0.35 0.36 0.36 0.23 0.36 0.55 0.63 0.64 0.98 0.99 1.00 1.80 1.80 1.41 1.07 0.85 0.82 0.78 0.78 0.86 0.84 0.80 0.65 0.42 0.35 0.51 0.56 0.39 0.41 0.37 0.35 0.36 0.32 0.27 0.20 0.24 0.26 0.22 0.23 0.25 0.31 0.33 0.34 0.39 0.47 0.70
1.09 0.56 0.49 0.53 0.41 0.35 0.34 0.31 0.31 0.27 0.29 0.43 0.47 0.39 0.43 0.85 0.95 1.22 1.33 1.71 1.51 1.32 1.08 0.99 0.94 0.81 0.84 0.76 0.74 0.71 0.62 0.30 0.21 0.27 0.39 0.27 0.31 0.33 0.37 0.42 0.47 0.52 0.39 0.30 0.32 0.37 0.39 0.39 0.43 0.45 0.51 0.46 0.43 0.42
0.74 0.61 0.36 0.33 0.45 0.57 0.69 0.62 0.57 0.55 0.57 0.62 0.60 0.55 0.75 1.01 1.04 1.29 1.31 1.16 1.15 1.15 0.92 0.72 0.55 0.57 0.60 0.54 0.53 0.50 0.33 0.34 0.48 0.52 0.53 0.47 0.43 0.36 0.37 0.46 0.54 0.64 0.41 0.36 0.45 0.51 0.52 0.59 0.57 0.56 0.63 0.64 0.55 0.49
0.58 0.32 0.46 0.43 0.56 0.70 0.73 0.66 0.76 0.91 0.88 0.62 0.56 0.70 0.79 0.82 1.17 1.20 1.10 1.22 1.07 0.84 0.88 0.91 0.76 0.61 0.75 0.87 0.84 0.79 0.80 0.75 0.73 0.53 0.49 0.68 0.52 0.35 0.34 0.42 0.47 0.45 0.40 0.43 0.47 0.60 0.73 0.74 0.76 0.68 0.68 0.71 0.77 0.77
0.39 0.23 0.24 0.30 0.30 0.57 0.65 0.65 0.79 0.71 0.58 0.60 0.78 0.90 0.70 0.74 1.19 1.07 1.09 0.96 0.93 0.79 0.95 1.04 1.26 0.97 0.87 1.13 1.23 1.11 1.10 1.09 0.85 0.78 0.59 0.66 0.62 0.58 0.39 0.36 0.41 0.41 0.39 0.42 0.51 0.54 0.63 0.69 0.66 0.68 0.67 0.73 0.75 0.78
0.18 0.12 0.23 0.13 0.18 0.61 0.80 0.56 0.61 0.55 0.40 0.52 0.55 0.54 0.52 1.09 1.63 1.16 0.89 0.81 0.78 0.88 0.93 0.84 0.94 0.81 0.90 0.88 1.23 1.24 1.25 1.36 1.37 1.05 0.82 0.63 0.54 0.45 0.35 0.33 0.31 0.33 0.34 0.35 0.38 0.53 0.66 0.71 0.83 0.89 0.84 0.92 0.99 1.00
0.21 0.26 0.24 0.17 0.41 0.62 0.52 0.36 0.39 0.44 0.56 0.73 0.59 0.51 0.65 1.04 1.04 0.84 0.74 0.86 0.73 0.59 0.52 0.61 0.71 0.73 0.78 0.89 0.95 0.95 1.23 1.38 1.51 1.38 1.29 1.04 0.80 0.63 0.50 0.41 0.37 0.41 0.50 0.53 0.48 0.49 0.55 0.64 0.68 0.71 0.69 0.71 0.70 0.67
0.35 0.41 0.34 0.34 0.62 0.54 0.40 0.38 0.53 0.70 0.81 0.87 1.00 0.92 0.88 0.55 0.54 0.68 0.75 0.72 0.56 0.54 0.59 0.53 0.60 0.86 0.80 0.94 0.98 1.00 1.05 1.14 1.20 1.27 1.49 1.29 1.04 0.86 0.66 0.57 0.54 0.61 0.69 0.66 0.58 0.58 0.58 0.57 0.65 0.66 0.68 0.70 0.71 0.76
0.39 0.26 0.27 0.31 0.35 0.35 0.38 0.39 0.55 0.62 0.71 0.79 0.98 0.91 0.79 0.50 0.62 0.82 0.70 0.58 0.74 0.62 0.57 0.60 0.58 0.68 0.70 0.63 0.61 0.64 0.63 0.72 0.81 0.88 1.03 1.10 1.07 0.97 0.85 0.75 0.68 0.64 0.66 0.66 0.64 0.62 0.61 0.58 0.63 0.64 0.66 0.65 0.62 0.62